Theta_e
302 302 302 302 302 302 302 303 303 303 303 303 303 303 303 303 304 304 305 304 303 302 303 303 304 305 306 306 306 305 305 305 306 307 308 311 313 313 309 308 308 309 308 308 309 311 312 311 310 310 311 310 310 313 313 314 315 315 319 320 317 316 316 315 317 315 314 315 313 311 311 313 313 312 323 341 345 344 345 344 346 346 344 346 347 347 347 345
302 302 302 302 302 302 302 302 303 302 302 302 303 303 303 303 303 303 304 305 305 305 304 304 303 304 304 304 304 304 305 305 306 307 311 314 314 314 312 310 308 308 308 308 309 310 311 310 310 310 310 311 312 313 315 315 316 316 316 317 317 317 314 312 314 312 311 313 311 311 312 311 314 312 314 337 346 344 347 347 345 347 347 347 347 347 345 342
302 302 302 302 302 302 302 302 302 302 302 302 303 303 303 303 303 303 303 304 305 305 305 305 305 305 304 304 304 304 304 305 307 312 315 314 313 312 312 312 309 308 309 309 309 309 310 309 309 309 309 312 313 314 315 315 316 316 315 317 317 315 313 311 311 312 312 313 310 310 312 311 314 312 318 340 346 346 350 347 346 347 348 347 346 345 344 341
302 302 301 302 302 302 302 302 302 302 302 302 303 303 302 303 303 303 303 303 304 305 305 306 306 305 305 304 304 304 304 306 313 316 315 314 313 312 311 312 310 309 309 309 309 308 309 308 307 308 309 313 314 314 315 315 316 315 317 320 316 311 313 313 312 313 314 313 311 311 311 312 313 313 324 340 346 349 348 343 346 347 348 347 345 345 343 341
301 301 301 301 301 301 301 301 302 302 302 302 302 302 302 302 302 303 303 303 303 303 304 305 305 305 305 304 304 304 303 308 317 317 316 314 313 312 311 311 310 309 310 310 309 307 308 307 307 310 311 313 314 315 315 315 315 314 316 316 314 312 313 314 313 315 316 313 311 310 312 313 313 313 319 334 345 348 343 341 345 347 347 347 345 345 343 341
301 301 301 301 301 301 301 301 301 301 302 302 302 302 302 302 302 302 302 303 303 303 303 304 305 305 305 304 304 304 303 308 314 313 314 314 313 313 311 311 309 309 310 310 309 307 308 308 308 311 312 313 314 315 315 315 315 315 316 314 313 314 312 313 315 316 316 313 311 311 313 312 311 312 312 323 335 335 335 340 344 346 347 346 346 345 344 343
300 300 300 301 301 301 301 301 301 301 301 301 301 301 301 302 302 302 302 302 302 302 303 303 304 304 305 305 304 304 303 306 308 309 312 313 314 314 312 312 310 310 309 309 309 306 308 309 309 312 313 314 314 314 315 315 314 316 317 315 314 315 313 314 316 316 315 312 312 312 312 311 311 312 312 318 321 323 333 340 343 345 347 346 345 346 345 344
300 300 300 300 300 300 300 301 301 301 301 301 301 301 301 301 301 302 302 302 302 302 302 303 303 304 304 305 305 305 304 305 306 309 312 315 315 314 315 314 312 311 310 309 308 307 309 310 310 311 312 314 313 314 315 314 314 316 317 314 314 316 315 316 315 314 314 313 313 312 311 311 311 311 314 316 314 322 336 341 344 345 346 346 345 345 345 344
300 300 300 300 300 300 300 300 300 301 301 300 300 301 301 301 301 301 302 302 302 302 302 302 302 303 303 304 305 306 305 306 310 312 314 316 316 314 315 314 313 313 311 310 309 307 308 310 310 311 312 312 313 314 313 315 316 315 315 314 314 315 315 315 313 312 313 312 312 311 311 311 311 312 313 316 319 329 341 345 345 345 345 346 344 344 345 344
300 300 300 300 300 300 300 300 300 300 300 300 300 300 300 300 300 301 301 301 302 302 302 302 302 302 302 303 305 307 306 305 311 315 317 317 316 315 314 313 313 313 312 311 309 307 307 309 310 311 312 313 313 313 313 315 316 314 314 313 313 313 312 311 311 312 312 311 311 310 313 312 310 313 313 320 333 339 345 346 345 346 345 345 344 345 345 344
299 299 299 300 300 300 300 300 300 300 300 300 300 300 300 300 300 300 301 301 301 301 301 302 302 302 302 302 304 306 306 305 308 313 316 318 317 314 313 312 313 313 312 312 310 309 307 308 311 311 313 313 312 312 312 313 314 313 312 311 311 310 309 310 309 311 311 311 313 310 313 311 309 314 311 322 340 345 346 346 346 346 346 345 344 345 345 344
299 299 299 299 299 299 300 300 299 299 300 300 300 300 300 300 300 300 300 301 301 301 301 302 302 302 302 302 303 305 306 306 308 310 313 317 317 315 314 313 314 313 312 312 311 310 307 308 312 313 313 313 314 313 312 313 312 311 311 311 313 312 311 311 309 311 311 311 313 311 313 314 314 314 312 328 344 347 346 346 347 346 346 345 344 345 345 344
299 299 299 299 299 299 299 299 299 299 299 299 300 300 300 299 299 300 300 300 301 301 301 301 301 301 302 302 304 305 305 305 305 308 313 316 316 316 316 315 315 315 314 312 311 310 307 308 312 314 314 314 314 313 313 312 311 312 311 310 313 314 314 311 308 310 309 311 313 311 313 318 321 314 315 337 346 346 347 346 347 346 346 345 344 344 345 344
298 298 299 298 298 298 299 299 299 299 299 299 299 299 299 299 299 300 300 300 300 300 301 301 301 301 302 303 305 305 305 305 306 307 311 315 317 316 316 316 316 316 315 313 311 310 307 307 310 313 313 313 313 313 313 312 311 313 311 312 312 312 317 313 308 311 311 312 312 311 314 317 322 312 314 341 347 344 346 345 347 346 345 345 344 343 344 344
298 298 298 298 298 298 298 298 299 299 299 299 299 299 299 299 300 299 300 300 300 300 301 301 301 302 303 304 305 307 309 309 311 311 309 311 315 317 317 316 317 316 315 314 311 309 308 307 308 311 312 313 312 312 314 314 315 316 312 315 316 311 315 315 309 310 312 313 311 311 315 314 319 313 312 337 347 344 345 345 347 346 345 345 343 343 343 343
298 298 298 298 298 298 298 298 298 298 299 299 299 299 299 299 300 300 301 301 300 301 300 301 304 305 305 307 308 310 311 312 313 314 312 310 311 314 316 316 316 316 315 314 312 309 309 308 308 309 310 312 312 312 314 316 320 320 313 314 318 313 313 314 311 309 308 311 312 311 315 314 318 314 309 332 347 344 344 345 345 346 345 344 343 342 342 341
298 298 298 298 298 298 298 298 298 298 299 299 299 299 299 300 302 303 304 304 303 302 301 304 308 308 308 308 309 309 312 315 315 315 315 313 312 311 313 315 314 316 315 314 313 310 309 310 310 313 313 312 314 315 315 317 319 321 316 314 318 315 312 314 313 310 308 311 313 311 313 314 317 314 307 323 344 343 343 345 345 346 345 344 343 342 341 341
298 298 297 298 298 297 297 298 298 298 299 299 298 299 301 304 305 306 308 308 306 305 305 307 307 307 308 308 308 310 313 315 315 314 314 314 314 311 311 312 312 315 315 314 313 311 311 310 311 316 316 311 313 314 316 319 320 317 315 315 317 316 313 313 313 312 311 312 314 313 314 315 316 315 307 313 336 344 343 343 344 345 345 344 343 342 341 341
297 297 297 297 297 297 297 298 298 298 299 299 299 302 305 306 306 309 311 309 308 309 310 310 307 306 308 310 310 311 312 313 313 313 313 314 314 311 311 311 313 315 314 314 314 311 311 311 311 314 315 314 314 314 315 319 319 314 312 313 315 314 312 311 312 312 311 312 314 313 314 317 315 316 312 308 325 340 341 342 343 344 345 344 343 342 341 341
297 297 297 297 297 297 297 298 298 299 299 298 301 305 307 306 308 311 310 308 308 309 309 310 309 309 310 311 311 312 312 311 312 312 313 315 314 311 311 311 314 314 314 317 316 310 311 314 314 315 315 318 320 318 315 315 314 311 312 313 313 312 311 310 311 312 311 311 317 317 315 317 315 317 315 308 317 332 336 339 342 343 345 344 342 342 341 340
297 297 297 297 297 297 297 298 298 298 299 299 302 307 307 307 310 311 308 307 308 308 308 308 308 308 309 308 310 311 310 311 311 311 312 313 314 313 312 313 314 316 314 314 314 311 311 315 316 317 319 323 325 322 317 313 312 311 312 313 313 312 311 310 310 312 311 312 320 320 316 317 317 317 315 311 317 327 330 335 340 343 344 344 343 341 340 340
296 297 297 297 297 297 297 298 298 298 299 299 303 307 306 307 311 310 307 308 309 308 309 308 308 308 307 306 308 309 309 310 310 311 311 311 313 314 313 314 316 317 314 311 314 313 313 316 316 315 318 321 322 322 318 314 313 313 312 313 313 312 312 311 312 313 312 313 319 320 316 316 316 315 315 313 315 319 323 330 337 341 343 343 343 341 340 338
296 297 297 297 297 297 297 298 298 298 298 300 304 306 305 306 310 309 308 309 309 308 308 308 308 308 308 307 308 309 309 309 309 310 311 311 313 314 313 313 315 315 314 314 317 316 316 318 314 311 315 316 315 317 317 313 313 315 314 313 313 312 311 314 315 316 315 315 317 317 315 317 316 316 317 312 310 310 315 325 332 337 341 342 341 341 339 338
296 297 297 297 297 297 298 298 298 298 300 303 305 306 305 305 308 309 308 309 311 310 308 309 309 308 309 309 308 309 309 308 309 309 310 312 313 313 312 312 313 313 313 315 316 316 317 315 310 311 314 315 313 314 315 312 314 318 316 313 312 312 312 313 313 315 318 320 318 315 317 322 322 322 321 315 311 309 309 318 328 335 339 340 340 340 339 338
296 296 297 297 297 297 297 297 299 301 301 303 304 305 304 304 305 307 309 311 312 311 310 310 310 309 310 309 309 309 309 308 308 308 308 311 312 312 312 311 312 313 313 313 313 315 315 311 310 312 313 313 313 315 316 315 315 318 318 315 312 312 313 313 312 313 318 323 320 315 319 327 326 324 322 317 320 320 314 316 324 333 338 339 339 340 338 338
297 297 297 297 297 297 297 300 302 301 300 302 304 305 304 304 306 308 310 314 317 315 313 311 310 310 310 309 309 309 309 309 308 308 308 310 312 313 313 311 312 313 312 312 313 314 314 310 311 314 314 313 312 314 316 316 314 315 319 319 313 312 313 312 312 314 319 322 318 315 318 322 322 323 320 319 328 334 327 324 325 331 338 338 339 339 338 338
297 297 297 297 297 297 298 300 300 299 301 304 305 305 304 304 306 307 311 315 317 315 312 311 310 309 309 310 310 309 309 309 310 309 308 309 312 314 314 313 312 312 310 312 315 315 313 312 312 313 314 313 312 313 314 313 313 315 320 320 315 313 313 313 313 315 319 321 321 322 319 316 320 322 320 322 334 337 334 333 330 331 336 338 338 338 337 338
297 297 297 297 297 298 299 299 298 299 302 304 305 305 304 304 305 309 313 312 310 312 312 310 310 309 308 310 310 309 309 310 312 311 309 309 312 313 315 314 313 313 312 313 317 314 313 315 314 313 313 312 312 314 314 312 312 316 320 318 314 313 313 313 314 317 319 316 319 324 318 314 324 330 326 328 339 341 335 334 332 333 335 337 339 338 337 337
296 297 297 297 298 299 299 298 299 299 301 303 304 304 304 303 305 310 313 310 308 310 310 309 309 307 308 311 310 309 310 310 311 311 310 310 312 313 314 313 312 313 310 312 316 315 313 313 312 312 313 313 313 313 313 312 312 315 317 315 313 316 317 315 316 318 317 315 316 321 319 314 323 335 335 335 340 337 332 329 330 334 336 337 338 337 337 336
297 297 297 298 299 299 299 299 299 298 301 303 305 304 303 306 312 311 310 310 310 310 309 308 307 305 307 309 310 310 310 310 311 311 311 311 312 312 313 311 311 315 314 312 314 314 312 310 309 311 312 312 313 311 310 311 312 311 313 314 314 318 320 320 322 320 316 317 317 319 322 317 318 329 332 332 334 330 327 327 330 335 337 338 338 337 337 337
297 297 298 299 300 300 300 299 299 300 302 304 304 304 303 308 315 314 310 310 310 310 308 306 305 305 305 305 307 310 310 310 311 312 312 312 312 312 313 313 312 315 316 313 314 315 313 310 311 312 311 310 311 310 308 309 309 311 315 317 316 319 319 319 325 321 315 320 321 319 320 316 317 328 328 327 329 328 327 326 329 335 337 337 338 337 336 336
297 298 300 300 300 302 303 302 301 301 303 304 303 304 307 307 309 312 312 310 308 309 307 305 305 306 304 304 307 311 311 311 311 312 312 313 314 313 314 317 316 315 317 317 317 317 316 314 313 312 312 310 311 312 311 309 308 310 316 317 315 318 317 318 323 320 317 322 321 318 318 316 321 327 327 328 329 330 328 325 328 335 337 336 336 335 335 335
298 300 301 301 302 305 306 305 302 300 301 302 302 305 311 310 307 310 312 310 307 307 306 305 305 305 305 306 309 310 311 312 312 313 313 312 314 313 313 316 317 317 320 319 316 316 318 317 313 311 313 312 311 314 314 313 312 311 313 316 317 318 317 320 323 318 318 321 317 314 315 318 326 327 326 329 329 330 329 327 331 336 335 335 333 332 332 329
299 301 300 302 306 306 305 304 302 301 300 301 305 306 306 306 307 309 311 311 309 306 306 306 305 305 306 308 308 309 312 315 314 313 314 313 314 315 314 313 313 317 320 317 315 317 319 320 317 314 314 312 311 313 313 316 315 310 312 314 316 322 322 322 323 319 317 320 319 318 316 320 330 331 328 330 329 329 330 330 332 333 332 332 330 328 327 324
301 303 301 305 309 307 304 302 300 301 299 302 308 308 305 306 308 309 310 311 308 306 306 305 304 306 310 310 309 307 310 316 318 316 315 315 316 318 317 313 313 316 317 317 317 316 314 318 321 315 310 310 312 313 313 315 315 312 312 314 314 321 324 321 320 320 320 322 322 322 323 323 327 330 327 328 330 330 330 329 329 329 328 328 326 325 325 325
305 305 304 308 310 308 307 302 300 300 299 305 310 308 309 310 305 306 309 307 305 305 306 308 307 308 311 312 310 307 308 315 319 319 317 315 315 317 317 314 314 314 316 319 320 316 313 318 322 315 311 313 313 313 313 313 316 315 312 315 315 315 320 321 317 316 319 321 319 321 328 327 325 327 327 328 330 330 329 328 327 327 326 326 326 326 325 326
309 309 307 310 311 310 310 306 303 301 300 305 308 307 310 309 303 306 309 306 306 305 305 309 310 307 307 311 312 308 309 314 317 318 320 319 317 318 319 316 314 313 313 316 319 317 315 319 322 316 314 315 310 310 312 311 314 318 315 316 314 311 317 324 323 321 319 319 322 324 331 332 327 330 331 329 331 330 329 328 326 325 326 325 326 327 324 325
311 311 309 311 313 311 311 309 308 305 303 307 311 310 310 307 303 305 307 305 308 307 305 308 310 308 307 310 314 311 309 312 315 319 323 321 319 319 322 320 315 314 312 310 315 317 313 317 325 317 312 315 313 311 315 312 310 316 318 316 315 317 321 319 321 324 319 319 326 325 325 328 329 332 333 329 330 331 329 327 326 325 325 325 325 326 326 326
312 313 311 312 313 312 311 312 310 308 307 310 313 312 308 307 307 306 307 308 307 307 308 308 308 309 310 311 312 312 312 311 314 319 320 318 317 317 320 321 317 315 312 308 314 319 314 315 323 320 312 313 316 317 321 320 312 311 314 312 316 325 326 319 318 322 320 322 326 325 325 330 331 328 327 326 327 329 328 327 327 326 326 326 326 327 328 328
311 314 313 313 313 312 312 312 311 312 312 310 311 311 307 308 310 309 309 310 307 308 311 309 307 310 313 313 310 310 312 313 315 318 318 318 319 319 319 320 319 317 314 312 317 322 317 313 319 326 320 314 317 318 319 321 315 312 314 315 318 322 320 319 318 317 321 325 325 326 331 335 330 324 323 325 325 327 328 326 327 326 326 326 326 327 328 327
311 314 314 313 313 313 312 313 311 312 313 310 310 311 310 310 311 309 309 310 309 310 311 310 310 311 313 312 310 310 311 314 317 319 319 318 320 321 319 317 318 319 319 320 321 320 319 316 319 327 325 319 320 318 316 317 315 316 320 321 324 325 320 320 319 316 320 324 325 328 335 336 328 322 323 324 324 326 326 325 325 325 325 326 326 327 327 326
312 314 313 313 314 313 312 313 310 308 312 313 311 310 310 311 311 310 309 309 309 310 309 309 310 311 311 310 310 311 310 311 316 318 318 317 318 318 316 314 315 317 320 323 320 318 322 323 321 322 322 318 317 316 316 316 315 319 324 323 325 327 324 323 324 322 320 318 320 325 331 332 325 320 323 324 323 324 325 324 324 324 324 324 325 326 326 326
312 312 313 314 314 313 312 313 312 311 312 312 310 309 309 309 310 310 309 309 310 309 308 309 309 309 310 309 309 310 310 310 315 317 318 318 317 315 313 314 315 316 321 323 321 320 324 323 321 324 328 325 322 320 317 315 318 322 323 322 322 324 327 328 327 328 326 322 323 324 326 330 325 321 323 323 321 323 324 324 324 324 324 324 324 325 325 326
312 312 313 314 314 313 312 312 312 314 314 312 311 311 309 308 309 310 309 310 310 310 309 311 310 308 309 310 310 312 312 311 313 315 316 316 316 314 314 315 315 317 320 321 320 321 323 321 319 321 326 325 325 326 323 320 323 323 321 323 322 320 324 324 319 321 323 322 324 324 327 330 326 322 323 323 321 322 323 324 324 323 323 324 324 324 324 324
312 312 312 313 314 313 311 310 311 312 314 313 312 312 310 309 309 308 309 310 308 308 309 310 309 308 310 311 312 313 313 312 312 314 315 316 315 313 313 315 317 320 321 318 317 320 323 322 320 322 325 325 324 325 323 320 322 321 320 323 322 319 320 320 319 321 318 318 323 328 331 330 323 322 325 323 322 323 323 322 321 319 320 321 322 323 323 324
311 312 311 311 312 311 309 309 309 310 312 312 311 309 310 311 309 306 308 309 307 306 308 307 307 309 310 312 316 317 314 313 313 314 314 315 316 313 312 314 316 319 322 317 314 320 324 321 319 322 325 323 321 319 316 316 320 322 323 323 321 319 320 323 327 325 320 321 326 329 328 326 323 324 325 323 323 323 322 319 316 314 313 314 315 318 320 322
309 311 310 309 308 308 308 307 307 308 308 308 309 308 308 310 309 307 308 308 306 306 307 306 306 309 309 310 314 315 313 313 314 313 311 311 314 313 311 312 313 315 318 316 313 321 328 322 317 319 318 316 316 316 314 316 318 318 319 320 317 317 322 331 333 325 318 321 326 325 322 323 324 324 325 325 323 321 317 314 311 310 309 309 310 313 316 317
308 308 308 308 308 308 308 306 306 308 308 307 308 308 309 310 309 308 308 307 307 307 308 309 308 307 306 307 309 311 312 312 312 311 310 310 312 313 314 315 314 312 315 317 315 322 330 323 317 318 318 315 316 316 315 316 316 312 312 314 315 315 321 329 329 320 318 322 326 324 322 323 323 324 324 322 318 314 312 310 309 308 307 307 307 309 310 310
307 308 307 307 307 306 307 305 304 306 307 308 309 309 308 309 308 306 307 309 309 308 307 309 309 307 307 307 308 309 310 310 309 309 309 309 310 312 313 316 314 310 315 321 317 317 323 321 316 319 319 316 316 316 315 317 317 314 311 310 312 316 317 319 319 316 318 323 324 321 321 320 318 319 319 315 312 310 309 307 307 306 306 305 305 305 305 305
307 308 307 308 307 304 305 305 304 307 308 306 307 307 307 308 307 306 306 307 309 309 307 308 308 307 307 308 307 307 307 308 307 307 307 308 311 312 312 313 312 309 315 322 318 314 318 317 315 319 321 318 316 316 316 317 319 318 313 309 311 316 318 317 318 318 319 321 320 319 321 318 314 313 313 311 309 308 307 306 305 304 304 304 304 304 304 304
308 308 307 308 308 304 303 302 302 308 311 306 306 308 307 307 305 305 307 306 306 309 308 307 308 307 308 310 310 306 305 307 307 306 306 307 309 311 312 312 310 309 314 321 319 318 322 318 314 319 323 318 315 317 317 318 320 321 317 311 310 314 316 315 316 316 318 320 320 320 322 318 312 310 309 308 307 306 305 305 304 303 303 303 303 304 305 305
308 308 307 307 306 302 301 303 303 307 307 303 305 307 306 305 303 303 306 306 304 306 306 305 306 305 307 311 311 306 303 304 305 304 305 305 304 305 306 307 307 307 312 319 319 318 321 319 316 319 322 317 315 317 318 318 321 321 315 309 308 310 312 313 314 313 313 316 319 320 319 314 311 309 308 306 305 304 304 304 304 303 303 302 303 303 303 304
Wind_Speed
8 9 9 9 9 9 9 9 10 10 10 10 11 11 11 11 11 12 11 11 11 11 12 12 14 14 15 17 18 19 19 19 18 19 16 8 6 7 8 7 6 8 9 10 10 10 10 10 11 12 12 10 9 11 11 8 8 6 3 3 2 4 4 4 6 5 3 4 7 13 17 7 9 17 12 3 4 4 4 4 6 7 3 10 10 17 32 27
8 9 9 10 10 10 10 10 10 10 10 11 11 11 11 12 12 12 12 12 11 11 11 12 14 14 16 17 18 20 20 20 20 15 7 2 4 5 6 7 7 8 9 10 9 9 10 11 12 13 12 10 8 10 11 8 8 5 3 2 5 5 5 5 5 3 3 6 11 15 14 9 11 15 12 4 1 3 1 4 8 9 10 14 16 26 32 26
9 9 10 10 11 11 11 11 11 11 11 11 11 11 12 12 13 12 12 12 12 12 12 13 14 15 16 17 18 20 20 21 16 4 4 3 4 5 5 5 7 6 5 7 8 8 9 8 11 13 13 9 7 10 10 8 8 5 4 2 7 5 4 6 6 8 10 12 11 13 14 13 17 15 9 3 1 1 2 4 7 13 18 21 25 31 30 27
9 10 10 11 11 11 12 12 12 12 12 12 13 12 13 13 13 13 13 13 13 13 13 13 14 14 15 17 17 17 19 17 6 6 4 4 5 6 5 2 5 4 6 8 7 9 9 7 10 13 12 7 6 9 7 8 7 4 5 5 5 3 2 6 7 11 16 16 10 12 15 14 17 14 7 1 2 2 8 12 7 14 25 28 30 31 30 31
10 10 11 11 12 12 12 13 13 13 13 13 13 13 13 14 14 14 14 14 14 14 14 14 14 14 15 16 16 16 16 8 3 5 2 4 5 6 4 2 4 5 7 7 7 10 10 9 12 13 9 4 5 6 3 9 8 2 6 11 8 3 3 5 9 14 19 18 12 10 10 11 15 14 10 3 5 5 5 10 8 17 27 29 33 33 32 32
10 11 11 12 12 12 13 13 13 13 13 14 14 14 14 14 15 15 15 15 15 15 15 15 15 15 15 15 16 15 9 1 1 3 4 4 5 4 4 3 4 4 6 7 8 11 11 12 13 11 6 3 4 4 3 8 8 2 6 11 11 10 6 8 14 19 21 16 11 10 10 13 13 14 14 8 12 12 7 3 11 21 26 29 33 35 35 33
11 11 11 12 12 13 13 13 14 14 14 14 14 14 14 14 15 15 15 15 15 15 15 15 16 16 16 16 15 12 9 8 7 6 8 5 2 2 4 3 4 3 5 7 9 11 14 14 14 11 7 3 3 4 4 5 5 5 6 5 8 11 10 13 17 19 21 17 16 17 13 13 10 10 11 8 15 18 8 4 14 24 27 29 32 35 35 34
11 11 12 12 12 13 13 13 14 14 14 14 14 14 14 15 15 15 15 15 16 16 16 15 16 17 17 16 14 12 13 11 6 5 7 4 4 3 2 2 2 2 4 6 8 11 14 15 15 11 5 2 4 5 4 1 2 6 7 6 8 11 13 15 16 18 22 21 21 16 11 15 13 9 8 12 17 14 7 8 19 27 30 32 32 34 34 33
11 11 12 12 13 13 13 14 14 14 14 14 14 14 15 15 15 15 15 15 16 16 16 16 16 17 17 16 13 11 11 7 3 5 6 4 6 4 2 2 1 3 4 5 7 10 13 15 16 11 4 5 5 3 4 3 3 6 8 8 8 11 15 15 14 17 19 20 17 8 10 16 10 4 7 13 12 6 10 16 24 29 32 33 31 32 33 33
11 12 12 13 13 14 14 14 15 15 15 15 15 15 15 15 15 15 15 15 16 16 16 16 16 16 17 16 9 4 7 6 4 4 4 5 6 4 2 2 2 3 4 5 6 10 13 14 16 11 3 4 5 2 4 5 5 6 8 10 11 14 16 12 10 15 16 16 15 7 10 11 1 1 5 8 4 10 17 22 26 29 32 32 31 31 31 33
12 12 13 14 14 15 15 15 16 16 16 16 15 15 15 15 15 15 16 15 16 16 16 15 16 16 16 15 8 5 7 6 4 4 3 4 6 4 2 2 4 4 5 6 6 8 11 12 13 10 2 2 3 1 3 4 6 8 9 8 11 12 12 9 9 14 10 9 14 8 8 8 2 3 8 7 9 16 23 26 26 29 31 30 29 30 31 33
13 13 14 14 15 16 16 17 17 17 17 17 16 16 16 16 16 16 16 16 16 16 16 16 15 16 16 17 15 10 8 8 7 6 6 6 7 6 4 5 5 5 5 6 6 7 9 11 12 10 3 3 1 1 2 4 5 8 7 4 8 8 7 7 7 10 5 4 11 4 4 9 2 6 8 8 15 20 24 27 25 27 30 30 29 30 32 32
13 14 14 14 15 16 17 17 17 18 18 17 17 17 17 17 16 16 17 17 17 16 16 16 15 16 15 17 16 8 10 13 12 12 9 8 10 10 8 7 6 5 5 5 5 6 5 10 13 10 3 2 1 2 5 8 6 6 3 1 5 7 6 6 2 3 1 5 9 4 3 8 6 10 6 13 21 23 24 25 25 25 29 30 30 31 32 31
14 14 15 15 15 15 16 17 17 18 18 18 17 17 17 18 17 17 18 18 17 16 17 16 15 15 14 18 17 13 16 16 15 15 13 12 12 12 11 9 6 5 5 4 4 4 3 9 14 9 4 3 4 5 7 7 3 2 2 1 2 2 5 8 5 1 1 5 6 7 3 6 9 12 4 17 23 26 24 23 25 26 29 31 30 32 31 31
15 15 15 15 15 15 16 16 17 17 18 17 16 17 17 17 17 17 18 18 17 16 16 15 15 13 14 21 19 13 13 10 8 8 10 16 15 14 13 10 7 5 5 5 4 2 3 7 13 7 5 6 5 4 4 4 3 2 1 3 3 1 4 10 7 0 1 5 2 6 2 5 8 10 2 17 22 24 23 22 25 27 30 31 31 32 31 30
15 16 15 15 15 15 15 16 16 17 17 16 16 16 17 17 17 17 17 17 16 15 14 12 11 8 9 14 10 4 5 5 4 4 2 10 16 17 13 10 9 6 6 5 4 2 3 5 9 6 5 5 2 0 3 4 4 3 1 2 3 2 3 6 6 3 1 2 2 2 2 4 7 8 1 16 22 20 20 20 23 27 30 32 32 32 31 29
16 16 16 15 15 16 16 16 16 16 16 16 16 15 15 15 14 14 13 12 12 12 10 8 5 6 9 11 7 4 2 3 3 3 2 4 10 18 16 12 11 8 7 5 5 4 4 4 4 4 3 1 2 3 2 2 4 3 2 0 3 4 2 3 4 5 6 4 4 4 1 5 8 10 4 12 23 19 18 20 22 25 30 33 33 33 32 31
16 16 16 16 16 16 16 16 16 16 15 16 15 14 12 11 11 10 8 6 5 4 5 6 2 3 8 10 7 5 4 2 2 2 4 6 6 16 19 14 11 10 6 2 4 4 6 4 2 1 2 1 3 4 3 4 4 2 0 1 3 3 3 3 3 5 7 6 4 6 3 7 10 11 8 8 21 21 19 23 24 24 28 33 34 34 33 33
16 16 16 16 16 16 16 16 16 15 15 14 13 11 8 8 8 5 4 5 3 2 3 6 7 3 6 7 5 5 7 7 7 7 6 4 5 15 20 14 9 8 3 2 2 5 7 2 3 2 2 3 4 5 6 7 6 6 4 3 3 4 5 5 4 5 4 4 6 6 6 7 8 10 7 7 19 23 22 21 22 21 25 31 34 33 33 32
16 16 16 16 16 16 16 16 15 15 15 12 10 7 6 8 6 1 6 13 12 11 12 13 14 15 18 19 15 12 12 11 10 7 2 0 6 14 18 13 6 4 4 4 2 4 7 4 1 4 5 5 6 7 7 5 5 5 3 2 3 5 7 3 3 6 3 1 7 7 6 7 8 10 8 8 16 19 17 17 19 21 24 31 34 33 31 28
16 16 16 16 16 16 15 15 15 14 14 11 7 5 5 7 4 3 11 16 16 16 19 21 21 24 27 28 25 22 17 13 13 11 6 4 6 11 14 10 4 2 3 4 3 2 5 5 6 7 7 8 6 6 6 4 3 2 2 3 4 5 7 4 3 7 3 3 5 4 3 7 9 10 9 7 10 12 17 18 20 25 27 31 34 30 27 25
16 17 16 16 15 15 14 14 14 12 12 8 4 4 4 5 4 6 9 11 20 22 19 20 22 27 32 32 31 26 16 10 15 16 10 8 9 10 10 7 5 3 2 3 3 1 1 3 8 8 7 7 4 5 6 4 3 2 2 1 4 4 5 6 3 3 0 3 4 5 5 8 12 11 9 7 9 15 25 29 29 31 29 31 32 27 25 26
16 16 16 16 14 14 13 13 12 11 10 5 1 2 2 3 4 8 7 8 18 21 16 17 20 27 32 30 27 20 12 9 15 17 11 9 14 14 11 7 5 4 3 4 5 3 2 5 7 7 7 7 3 4 7 4 1 2 3 2 4 2 1 4 4 4 3 2 5 6 6 8 9 8 7 7 11 17 23 30 34 36 34 34 33 28 28 30
16 17 16 15 14 13 12 12 11 8 6 2 0 0 1 4 5 9 7 6 9 12 11 12 14 21 25 22 17 14 15 15 16 18 15 13 15 13 10 8 5 4 4 6 8 6 6 6 3 6 6 7 5 3 6 3 2 3 5 5 5 3 3 7 5 5 6 4 3 2 5 6 5 5 6 6 9 12 13 19 26 28 27 27 27 26 29 33
16 17 16 15 14 12 11 11 8 4 3 1 1 2 2 4 7 9 6 2 5 7 5 5 7 10 11 8 9 12 12 14 20 22 18 17 18 11 6 8 6 4 7 6 6 5 8 7 5 6 3 5 5 4 4 6 3 4 5 9 9 7 8 9 3 5 5 5 3 2 4 5 5 4 6 6 7 8 6 8 15 19 18 20 25 28 31 33
16 16 16 15 13 12 9 6 4 3 3 2 3 3 2 4 7 8 3 2 4 5 2 2 3 5 6 4 11 10 4 7 21 25 18 17 21 15 6 5 4 4 7 5 4 3 4 4 6 6 5 5 4 4 5 7 4 4 6 9 11 9 9 8 1 3 0 3 3 4 3 5 6 5 6 6 6 7 6 2 8 16 19 22 27 31 33 34
16 16 15 14 13 12 8 4 4 5 3 3 3 2 2 4 4 5 3 4 4 4 1 1 1 6 7 5 13 12 3 4 9 16 22 21 22 20 9 3 3 3 4 5 1 3 2 4 5 5 6 5 3 4 5 8 7 4 5 8 9 8 8 7 4 4 4 3 4 4 4 3 5 5 6 5 4 6 7 5 3 11 19 24 29 34 36 38
16 16 15 13 12 12 9 6 5 4 4 4 3 2 4 4 3 2 3 3 3 2 3 1 1 8 9 4 17 12 3 3 1 6 21 24 20 16 9 6 7 5 5 6 3 4 4 6 8 7 6 4 5 5 7 9 5 6 5 7 8 7 7 6 6 5 2 1 4 5 2 2 5 6 5 4 4 6 6 5 6 5 14 22 30 35 38 40
15 15 14 12 11 10 9 7 5 3 5 4 2 3 5 3 1 2 4 1 3 3 5 3 3 8 8 4 15 14 7 5 3 2 14 21 18 12 6 9 9 5 5 6 5 4 2 5 9 8 6 5 7 6 9 11 6 4 5 5 3 3 3 3 5 4 1 1 5 6 2 2 4 5 5 4 4 5 6 6 6 6 13 21 29 33 36 37
15 14 13 12 10 9 8 7 5 4 4 3 1 3 5 4 3 4 2 2 2 4 7 4 3 7 5 3 5 12 8 5 3 4 10 13 14 8 4 7 6 5 2 2 3 4 2 0 4 6 6 7 7 5 9 13 9 2 4 4 4 4 3 3 2 3 3 2 7 7 5 4 3 5 3 1 3 5 6 6 6 7 14 21 27 31 36 37
13 12 11 11 10 9 8 5 4 4 5 4 0 3 6 4 4 4 2 3 2 4 7 5 4 8 6 2 4 5 5 5 0 7 7 5 6 5 4 4 3 4 1 4 3 4 4 1 1 5 9 7 4 3 6 8 6 2 3 3 3 2 3 4 4 3 3 5 7 5 5 6 3 5 3 4 6 7 7 7 7 6 12 19 25 30 34 35
11 10 10 10 9 8 6 4 4 5 6 3 0 5 7 3 2 3 3 4 2 3 5 3 4 8 8 4 3 4 3 3 3 6 4 2 5 5 3 4 4 3 1 4 3 4 3 4 3 4 8 8 5 2 3 2 1 4 3 4 3 1 2 2 3 0 2 6 5 2 3 4 4 5 4 6 6 6 6 6 6 6 9 12 17 23 25 23
8 9 9 8 6 4 4 5 4 5 6 3 2 4 6 4 1 4 3 3 1 2 3 4 6 8 7 5 3 4 1 1 3 4 2 2 4 5 2 1 6 5 1 4 2 1 3 5 3 1 4 7 8 4 2 1 3 5 5 5 4 2 2 1 3 1 3 5 3 1 2 2 4 3 3 7 6 6 5 3 5 7 8 10 10 15 15 13
6 7 6 3 1 2 3 4 2 4 5 5 4 4 5 2 4 2 1 2 3 3 3 4 7 8 5 2 3 4 3 2 1 4 3 2 3 4 2 1 3 5 3 2 2 3 2 4 3 4 2 4 8 7 6 4 4 5 4 5 5 4 4 3 4 3 4 4 3 3 0 2 2 2 3 6 5 3 4 3 4 3 11 16 14 16 20 23
5 5 3 3 2 4 4 2 1 4 7 7 5 5 4 3 3 0 1 3 2 3 6 6 4 4 4 3 3 4 2 1 1 4 2 2 4 4 3 4 4 4 4 3 2 2 3 4 7 4 1 4 5 5 5 6 2 3 3 4 2 5 5 2 3 4 3 1 2 3 1 2 3 4 4 4 3 3 8 8 10 12 14 19 19 18 18 18
3 2 6 5 3 5 7 6 4 6 10 8 5 3 3 3 1 2 2 2 1 3 6 6 3 3 4 4 4 6 3 0 1 2 1 1 2 3 3 3 5 5 5 4 3 1 2 4 7 4 3 4 5 5 5 6 4 1 3 4 4 4 7 4 2 0 3 1 3 1 2 4 3 3 3 1 2 5 8 9 11 13 13 16 18 22 21 13
1 3 7 5 3 5 8 8 7 6 8 7 5 2 4 2 3 4 1 1 3 2 2 3 2 1 3 3 3 6 4 2 3 1 0 1 1 2 2 1 3 6 7 5 2 3 3 3 6 2 4 6 2 3 2 3 6 4 3 5 2 2 4 4 2 3 4 2 4 1 1 4 1 1 3 3 3 5 7 7 9 14 17 15 8 15 23 17
2 5 7 5 4 5 6 7 6 5 5 5 2 2 2 1 3 4 2 2 2 1 3 1 2 1 2 2 4 5 4 3 3 1 1 1 2 2 2 1 1 3 8 7 3 2 3 1 6 2 4 7 4 2 2 4 1 3 4 4 3 2 1 1 2 1 1 2 3 2 2 2 2 3 1 2 3 5 7 8 9 11 13 11 4 5 11 14
5 6 5 5 5 5 5 4 4 3 4 4 0 2 1 2 4 4 5 4 1 1 1 2 2 2 2 2 4 5 3 1 1 0 1 1 2 2 1 2 2 1 4 9 6 1 2 1 5 4 4 4 5 3 1 3 3 3 3 2 2 2 4 2 2 3 3 3 2 2 2 3 4 4 1 1 3 5 7 9 9 8 10 12 11 7 8 9
5 5 4 6 7 5 3 2 3 3 3 2 2 2 1 2 4 6 8 5 1 1 1 3 2 2 3 3 4 4 2 0 1 1 1 1 1 2 3 1 2 0 1 5 5 1 3 2 4 5 5 2 2 1 2 4 2 2 2 2 1 1 2 1 1 2 3 4 3 1 1 5 5 2 1 2 1 4 7 8 8 9 11 13 14 13 11 11
6 3 3 6 7 6 3 2 3 3 2 1 2 1 2 2 2 7 10 7 4 5 4 3 2 2 3 3 3 3 1 1 0 0 1 0 1 0 2 2 1 1 3 5 3 1 2 2 3 2 4 2 3 5 3 4 4 4 4 4 3 3 4 3 1 1 2 3 3 4 2 6 4 1 1 1 2 3 8 9 8 12 16 16 16 15 13 12
6 3 3 6 7 6 2 1 1 2 2 1 2 3 3 3 2 5 7 5 4 5 3 3 3 3 3 3 3 2 2 2 1 0 1 1 1 2 4 5 1 2 2 1 1 2 3 4 2 1 2 3 7 7 3 1 2 3 2 3 3 3 4 5 3 3 1 2 2 3 1 5 4 0 1 1 3 4 9 12 10 12 16 17 17 13 11 11
6 4 4 6 8 6 1 2 3 2 0 2 3 3 4 2 2 3 3 2 2 1 1 1 3 3 3 2 2 2 2 1 1 1 1 1 0 2 8 7 2 4 2 2 2 1 2 3 2 2 4 4 5 6 4 3 4 3 2 2 2 1 3 5 5 3 3 3 2 2 0 4 4 1 1 4 5 6 11 14 14 15 14 12 12 10 10 12
8 7 5 6 8 6 1 0 1 2 3 3 3 3 3 2 2 2 2 2 2 1 1 2 1 1 2 2 0 1 2 1 1 2 1 1 3 7 13 8 2 3 1 2 3 2 1 1 2 1 3 4 5 5 5 5 4 2 2 4 4 2 4 4 2 3 2 3 4 4 2 5 3 1 2 5 6 7 9 12 14 16 16 14 13 12 12 13
9 6 4 6 8 5 2 1 2 1 2 3 3 4 4 2 2 3 2 3 3 1 1 2 2 1 2 2 1 2 2 0 0 2 2 3 4 7 14 13 5 3 2 2 3 4 2 1 2 3 2 3 1 2 3 3 2 1 2 5 6 3 3 3 3 4 1 2 3 4 4 4 1 1 2 5 6 6 8 11 13 15 16 18 18 17 16 14
5 2 2 3 5 5 3 1 3 2 1 1 2 3 2 2 4 4 1 1 4 4 1 1 3 3 3 4 3 3 3 2 1 3 3 3 3 4 11 12 10 9 5 5 6 4 3 2 2 4 4 5 5 5 5 2 1 2 4 6 6 5 3 2 4 2 3 2 1 2 4 2 2 2 2 5 6 5 7 11 14 15 14 15 18 19 17 16
3 1 2 2 2 1 1 1 3 2 1 2 1 2 2 2 4 4 2 1 5 7 2 1 4 4 3 5 3 3 4 4 4 4 3 3 1 4 11 8 10 14 8 5 6 3 4 3 2 5 4 2 3 4 4 1 3 1 3 6 7 8 6 4 4 3 5 5 1 5 4 5 5 4 4 5 6 6 8 11 14 15 16 16 18 20 19 18
2 1 3 3 2 1 2 1 1 4 2 1 1 1 2 3 3 2 2 2 4 7 4 2 5 5 3 3 1 2 4 4 4 3 3 4 2 5 9 5 7 14 9 4 6 3 5 2 1 3 2 2 3 3 1 5 4 3 5 6 8 9 7 4 2 2 4 5 3 4 5 5 3 3 4 6 8 9 11 13 15 17 18 17 18 20 20 19
4 4 3 4 2 2 3 1 2 5 3 1 1 1 1 3 4 2 2 2 4 5 3 1 5 6 5 3 1 1 3 2 2 3 2 3 3 2 5 4 6 12 9 4 4 3 4 1 1 3 3 4 5 4 3 5 5 3 6 7 8 8 7 6 2 1 2 4 5 6 7 5 3 3 4 9 14 16 17 19 20 21 20 20 22 22 20 18
5 4 4 5 5 5 4 3 3 4 3 2 2 2 1 1 3 4 2 1 0 3 2 2 5 6 3 4 3 3 2 3 2 2 1 1 2 0 1 1 4 9 8 3 2 3 3 2 0 3 4 3 5 4 4 4 5 5 7 9 10 8 7 7 4 2 3 4 8 9 7 3 4 4 7 13 17 19 19 19 22 21 20 22 25 24 21 19
6 5 6 7 4 5 4 3 3 3 2 3 1 2 2 1 3 4 3 2 2 2 1 1 4 4 3 5 4 2 1 4 6 6 5 3 2 2 2 2 2 4 6 3 2 3 3 2 1 3 3 1 4 4 4 4 4 6 7 10 10 7 4 3 3 3 3 2 8 8 4 2 1 4 10 14 15 18 17 17 21 21 20 21 24 25 23 20
6 6 8 8 3 4 3 2 3 3 1 1 1 2 2 2 4 3 1 3 1 1 1 2 1 1 3 3 4 7 11 11 11 12 9 7 7 7 8 9 5 3 3 2 2 2 2 3 2 2 2 1 4 3 4 4 3 3 4 6 6 4 2 2 2 4 6 1 4 4 3 3 3 5 9 10 11 14 15 16 18 18 19 21 21 22 23 23
Wind_Direction
329 329 328 328 329 327 327 326 325 325 328 330 330 330 329 328 326 326 326 327 326 321 317 313 311 309 309 309 312 317 318 318 316 315 313 320 324 291 264 253 247 242 232 220 211 205 200 196 194 189 185 171 160 166 162 151 142 139 107 118 209 214 207 188 184 198 215 299 312 322 342 355 322 338 345 0 71 64 145 117 125 173 214 177 171 162 160 157
326 326 324 326 325 323 323 322 322 322 323 324 322 322 325 326 325 324 324 325 326 326 324 321 317 315 315 314 316 321 323 323 321 320 323 346 346 322 272 244 245 245 231 221 216 212 204 202 196 188 180 163 153 163 172 178 164 157 101 141 227 207 208 200 193 250 292 293 303 311 331 341 314 324 326 302 0 359 15 95 113 123 130 151 156 157 158 155
323 323 323 323 322 322 321 320 321 320 320 320 317 317 319 322 323 322 322 322 323 323 323 324 321 320 320 317 320 324 327 327 328 354 94 46 2 343 311 242 236 240 218 215 216 213 209 204 197 185 171 156 155 165 175 182 183 198 127 174 242 198 214 251 261 277 289 290 298 310 321 326 320 326 322 289 138 341 250 175 133 134 138 143 151 154 153 153
320 321 320 320 320 321 320 319 319 318 318 317 315 316 316 318 319 318 320 321 322 320 320 321 319 322 320 318 323 326 331 334 356 101 96 19 12 357 350 221 214 209 190 202 206 204 203 190 184 178 166 154 157 165 175 179 181 196 164 213 235 150 235 273 292 291 298 299 291 303 316 320 323 331 326 324 134 272 236 214 183 153 151 145 149 153 155 160
319 320 320 320 320 320 319 319 318 318 317 315 315 315 316 317 316 316 318 320 321 320 319 318 318 321 319 320 323 326 338 348 92 92 38 1 5 5 20 144 185 193 195 203 203 195 190 176 169 165 160 149 152 161 182 182 176 169 222 243 251 265 289 290 309 303 299 299 298 304 314 311 313 316 308 291 205 251 262 223 184 152 155 151 154 157 161 168
321 322 322 321 321 321 319 319 318 317 315 314 314 313 315 314 315 316 316 317 318 317 318 318 318 319 320 323 323 328 340 301 282 323 269 303 341 24 57 125 169 199 207 210 206 187 177 167 164 159 144 131 155 167 182 188 189 228 254 255 259 263 263 280 293 296 296 296 300 295 294 302 306 309 298 269 240 262 315 253 170 151 157 159 161 165 170 175
323 323 323 322 322 321 319 318 317 317 316 315 314 313 314 313 314 313 313 315 314 315 317 317 318 317 319 323 324 328 309 282 308 289 252 269 278 90 77 131 164 210 217 217 212 189 177 166 165 158 127 115 173 184 201 198 193 219 261 273 271 268 258 274 284 289 295 289 288 291 295 297 286 300 299 270 267 270 287 239 169 152 158 165 167 173 178 179
324 323 322 321 320 319 317 316 315 315 315 315 315 315 314 313 312 310 310 310 310 312 312 314 316 315 317 321 327 326 303 298 317 260 246 249 213 173 93 141 173 231 232 228 221 198 182 170 167 160 138 174 163 171 202 225 215 216 250 278 279 274 265 277 287 288 292 288 291 297 287 285 279 283 279 272 283 272 236 189 164 153 160 169 173 178 181 182
322 321 320 318 316 315 314 314 313 313 313 313 314 315 314 314 313 311 309 307 308 308 308 311 311 312 314 315 326 323 303 310 326 252 248 235 203 184 156 178 225 262 249 233 223 205 190 182 177 165 166 189 161 173 170 153 245 220 233 259 267 270 275 283 287 287 291 288 292 301 279 288 301 291 268 278 286 239 178 163 159 156 162 171 176 181 184 187
319 317 316 314 313 312 311 311 310 310 311 311 313 313 313 313 313 312 309 308 305 304 305 307 307 309 308 308 325 328 300 307 299 268 249 217 192 179 169 197 264 283 269 247 232 219 208 200 186 167 151 169 162 197 154 165 242 247 248 260 263 269 281 283 278 284 289 286 281 267 271 283 11 135 261 275 248 170 157 152 157 159 165 173 178 183 188 191
318 316 314 312 311 309 308 308 307 308 308 309 310 310 311 310 311 310 308 307 303 304 304 303 303 303 302 301 287 261 293 297 278 278 264 211 183 173 168 220 267 273 272 269 267 246 223 207 186 172 180 181 170 218 185 216 253 274 281 278 277 282 289 273 255 275 278 282 276 245 262 289 133 184 252 237 177 164 156 151 159 164 170 177 180 185 190 194
319 317 314 312 310 308 307 306 306 307 306 307 308 307 308 306 307 306 306 305 303 305 302 301 301 298 300 293 274 266 288 285 272 267 246 214 191 195 211 229 254 260 272 281 294 284 232 202 184 185 191 166 173 341 268 294 292 283 288 281 296 322 315 276 244 265 250 250 272 235 289 307 215 220 246 192 164 161 156 154 161 168 175 178 181 189 193 197
321 318 316 313 311 309 307 306 306 305 304 305 305 306 305 303 303 303 302 300 301 303 300 300 298 298 299 282 274 282 287 278 269 253 229 213 204 209 224 229 241 256 271 280 297 309 247 198 189 200 200 124 197 308 308 315 316 292 284 189 317 345 322 295 281 285 261 242 251 187 267 290 260 261 232 165 164 159 155 159 165 169 175 178 184 192 197 201
320 317 316 314 313 311 309 308 306 305 304 305 306 306 303 300 300 298 297 296 297 299 298 298 295 297 289 274 282 292 283 278 267 254 229 216 210 210 224 224 230 251 259 279 291 318 290 201 199 212 231 245 277 308 320 324 334 309 290 266 351 352 283 304 327 337 0 273 227 166 223 272 271 288 220 168 171 162 161 168 171 172 176 182 189 193 199 203
317 316 316 314 314 312 311 310 308 306 306 306 309 308 302 300 298 295 293 292 293 294 293 293 291 295 287 284 293 291 285 291 285 276 233 220 213 210 221 219 224 251 254 272 269 303 18 191 205 223 244 263 295 319 337 346 359 15 296 303 344 168 268 309 321 5 248 285 184 143 232 279 269 294 203 174 178 166 167 173 176 179 179 185 194 196 200 203
315 314 314 314 313 313 312 311 309 309 308 311 315 311 305 303 300 296 293 290 289 285 282 283 285 294 291 292 302 291 299 341 4 12 246 226 217 212 214 217 226 243 248 259 248 217 91 166 205 230 243 261 278 164 14 356 336 5 67 275 302 274 291 319 320 339 344 293 5 88 230 291 277 299 73 171 182 175 172 178 182 185 184 189 197 199 200 203
313 313 312 313 313 313 313 312 311 311 312 317 319 316 313 309 307 304 300 293 284 275 271 271 287 297 272 269 277 274 293 36 53 64 20 308 235 216 208 214 226 234 241 251 254 214 170 183 202 229 241 234 118 119 46 306 285 327 15 303 265 260 272 310 300 328 20 45 352 359 196 258 270 287 310 177 186 184 180 187 188 188 189 192 198 202 204 204
312 312 312 312 313 313 313 313 312 312 316 322 325 325 320 314 317 319 321 317 286 268 272 248 214 318 272 259 255 250 239 228 262 274 306 321 242 211 207 215 227 230 229 223 240 194 178 206 168 131 332 79 123 118 160 226 210 198 132 35 288 283 248 233 257 306 3 20 335 342 296 259 268 279 292 205 192 191 192 195 193 192 192 194 199 203 205 207
311 311 312 312 313 314 313 313 313 313 318 327 335 333 330 332 330 332 3 341 274 221 271 227 190 213 264 265 249 240 258 263 278 289 296 308 211 202 204 212 221 214 179 120 215 175 165 164 85 130 259 198 183 161 182 202 164 157 168 171 230 280 268 225 224 269 325 353 306 295 269 264 277 278 279 215 198 199 203 200 196 196 194 195 200 203 206 206
312 312 312 313 314 314 314 313 312 314 320 332 347 349 1 1 353 348 325 305 276 258 263 249 239 250 262 269 267 267 275 277 281 277 272 127 194 197 200 204 203 189 156 150 193 170 158 157 162 208 206 184 200 194 180 173 144 141 163 213 233 255 276 250 226 258 215 244 278 258 249 265 272 273 271 220 202 205 204 198 198 199 196 195 200 205 205 200
313 312 311 313 314 315 315 312 311 314 322 332 356 25 39 26 26 322 317 305 291 281 270 263 257 257 262 264 265 271 281 286 275 253 235 242 201 189 199 193 158 185 220 163 143 119 137 171 225 218 190 176 186 181 157 141 137 139 192 271 277 244 269 285 245 256 202 169 260 270 301 286 270 270 271 224 195 208 205 194 197 200 198 198 200 203 198 192
313 310 311 313 315 318 315 311 310 313 321 328 356 53 57 31 14 318 315 298 297 297 281 269 257 253 258 258 259 263 272 282 267 253 245 234 207 192 191 174 153 190 214 114 115 89 117 216 231 210 179 158 125 120 129 135 154 150 141 234 274 253 286 300 277 278 104 151 260 309 327 287 276 274 270 227 203 221 213 200 199 200 198 199 199 195 187 184
311 309 310 314 318 320 314 310 309 309 319 322 346 72 60 343 334 314 301 270 292 299 279 264 251 250 255 257 257 252 237 239 253 256 245 200 194 194 180 166 175 167 128 141 164 172 207 245 226 188 160 144 128 121 122 111 126 163 156 183 261 266 345 292 295 328 328 244 253 293 306 282 284 295 287 250 241 247 229 209 205 202 199 200 197 190 182 181
310 308 310 316 320 319 313 308 306 305 311 313 280 132 277 296 307 315 303 256 285 296 280 271 256 257 263 265 258 230 218 227 239 249 239 197 182 184 186 179 156 150 187 186 172 181 225 235 169 131 142 155 184 177 136 157 264 245 204 203 242 244 207 240 281 338 326 305 249 292 330 300 303 322 305 290 286 280 248 215 208 206 202 197 190 185 184 186
308 306 310 319 320 318 315 305 298 294 293 286 207 235 269 291 303 319 318 283 294 287 288 286 252 269 283 266 230 208 212 228 233 236 228 204 187 171 173 178 156 190 213 171 147 199 243 231 150 120 139 161 183 219 182 179 227 288 232 211 220 220 227 243 286 11 357 334 300 41 23 301 307 320 290 314 338 322 290 217 203 199 191 181 177 180 184 188
305 304 310 320 319 317 316 299 280 279 285 236 201 230 270 288 309 325 338 43 324 276 321 321 240 330 338 207 193 186 177 239 239 233 219 207 200 183 156 164 164 203 196 151 136 214 250 205 167 160 162 151 170 239 225 170 156 280 241 206 209 212 230 247 239 76 85 266 294 51 95 267 306 325 293 316 351 344 346 336 195 185 175 171 174 177 180 185
302 303 310 319 319 318 317 293 275 283 265 190 206 225 244 270 311 336 3 39 325 261 47 37 225 3 344 211 175 159 144 269 244 225 210 202 195 186 180 172 166 185 159 124 170 233 177 155 170 166 148 148 175 241 223 156 135 251 231 178 186 200 220 226 159 164 232 261 317 18 123 229 295 287 286 321 8 359 359 355 252 189 174 171 174 177 182 187
302 303 311 317 315 315 315 303 286 272 224 207 235 217 213 249 288 353 63 58 298 276 45 12 29 9 353 200 182 183 293 315 24 224 209 197 185 179 187 195 176 178 161 140 189 233 163 168 185 167 145 173 201 202 181 155 159 245 209 163 175 185 196 193 162 192 248 353 310 307 139 202 274 272 303 358 33 355 340 333 311 215 179 174 175 179 187 192
302 306 311 313 310 308 309 304 285 250 228 221 226 216 205 205 225 60 78 109 277 14 13 339 27 359 356 155 198 226 295 333 2 219 193 188 186 178 189 205 177 156 179 172 196 219 183 192 187 158 151 203 214 195 163 166 202 227 160 141 131 116 132 141 147 168 79 30 257 252 191 198 272 288 326 13 33 335 312 316 302 221 184 180 178 183 189 193
305 310 309 308 307 303 303 296 272 245 214 174 167 214 182 150 99 69 74 254 275 359 349 344 9 335 341 92 238 247 255 293 339 129 162 178 187 172 145 186 163 117 187 253 230 233 306 231 167 157 186 205 202 193 177 185 199 153 110 102 68 47 50 75 94 101 89 276 252 229 195 182 263 290 295 308 312 290 283 297 279 212 189 187 185 187 191 193
308 309 304 304 306 304 305 290 253 216 174 152 178 176 147 118 67 93 174 258 290 340 346 357 354 339 345 17 296 262 233 265 44 131 158 168 168 155 96 136 145 85 18 306 295 301 334 13 175 211 213 197 158 192 212 209 202 117 79 89 84 334 20 41 356 49 107 255 259 231 182 160 213 258 259 276 278 270 263 263 258 218 195 192 188 188 191 192
310 302 297 302 305 305 302 270 236 202 179 165 133 159 141 81 25 167 246 311 358 339 338 335 331 333 331 330 280 253 235 235 174 144 171 149 149 180 153 157 169 94 328 257 268 328 305 234 250 255 226 200 164 214 291 320 123 129 119 100 101 310 21 27 304 52 197 250 256 224 153 154 226 237 269 303 293 282 262 237 254 248 206 189 184 184 186 186
304 293 293 296 301 307 295 278 249 204 194 180 142 136 108 78 222 220 283 328 350 312 311 304 313 312 307 324 310 283 292 234 201 148 149 114 146 195 211 160 164 142 185 215 194 305 299 294 284 253 252 209 172 180 255 271 148 151 152 143 145 130 86 271 269 259 262 264 276 293 152 204 272 249 278 307 307 303 295 257 288 274 191 160 156 158 146 126
293 292 287 267 316 352 318 304 251 193 193 175 135 92 87 132 226 241 321 282 273 309 315 306 311 312 310 322 317 326 12 331 235 128 127 102 137 199 256 291 180 145 130 149 155 181 196 316 253 190 240 187 174 195 201 166 149 168 165 139 148 157 150 204 224 212 255 271 307 323 163 186 248 248 266 296 308 336 12 37 33 64 129 128 117 114 107 101
287 286 222 177 77 31 16 22 123 158 168 156 104 74 120 196 246 140 235 262 287 317 313 317 329 341 337 305 304 339 21 288 9 91 120 144 163 193 195 209 202 137 123 163 221 172 154 261 252 240 244 153 185 221 161 116 127 204 143 109 157 186 154 151 195 177 181 246 315 315 268 217 232 264 278 300 323 60 61 58 73 81 100 112 110 108 104 102
288 240 178 164 95 59 48 59 101 139 159 146 81 71 183 213 213 155 189 262 296 315 322 333 8 36 342 315 319 339 347 272 28 60 93 189 201 203 189 204 196 162 149 164 208 167 121 262 274 309 296 200 201 215 169 152 185 183 128 171 217 176 129 119 210 88 83 153 279 311 280 300 318 301 300 350 29 71 70 57 64 67 74 93 113 127 125 116
285 187 175 168 122 83 60 62 85 123 151 131 88 178 218 224 181 182 229 312 279 302 34 8 334 15 351 325 303 314 332 9 10 21 206 295 268 198 194 218 174 183 187 170 208 204 143 264 284 309 275 267 235 186 192 159 147 129 176 205 190 94 92 110 169 7 47 206 271 330 254 298 342 291 320 42 62 60 70 70 63 59 57 56 77 126 131 140
131 151 165 167 145 103 73 65 76 110 131 99 67 228 222 203 195 208 284 324 295 334 83 153 264 356 19 323 282 292 322 359 349 348 166 284 268 180 174 189 134 223 208 175 191 243 136 275 294 272 248 295 349 77 337 337 90 141 176 169 112 121 179 93 145 147 123 219 286 319 264 262 207 221 299 47 50 46 63 77 78 75 77 75 75 136 137 146
132 135 140 156 155 121 93 70 61 85 94 82 58 246 209 239 250 261 294 312 292 69 74 209 231 346 346 259 253 281 321 334 271 151 129 225 244 220 219 184 143 297 204 162 162 227 105 143 284 280 259 300 1 37 288 299 341 51 117 118 54 136 166 165 150 157 163 181 255 309 312 263 231 219 207 352 11 54 75 78 81 90 94 94 101 117 132 131
152 132 113 147 160 152 136 54 37 61 68 105 194 220 227 255 276 288 297 299 225 209 245 207 206 296 285 270 257 262 308 299 193 204 207 196 210 268 302 287 159 343 72 122 133 129 68 116 244 284 312 334 354 319 223 203 188 92 142 188 298 86 138 152 94 98 129 149 178 188 305 269 250 219 265 301 24 87 94 83 75 83 87 91 97 103 114 117
154 118 105 152 166 172 169 28 40 69 77 159 205 216 266 285 286 292 294 284 236 234 235 203 196 229 242 278 275 252 301 329 112 164 232 238 81 172 310 329 142 14 25 58 74 132 116 138 198 293 352 2 256 254 223 182 177 169 176 186 179 142 124 135 251 301 101 126 165 159 201 271 261 160 289 277 136 124 108 103 89 80 83 91 99 104 113 118
150 108 123 157 169 183 184 27 27 76 112 194 258 249 265 293 284 285 293 279 239 237 234 206 216 225 215 234 256 264 326 327 319 10 216 324 101 160 311 320 32 87 66 97 255 217 139 109 124 251 278 247 258 260 247 166 137 139 157 157 145 129 120 138 198 236 119 106 139 124 136 274 270 206 319 96 120 118 113 118 116 100 94 94 98 105 116 122
130 111 131 151 167 179 169 0 346 7 198 255 291 264 255 269 259 285 314 315 280 256 276 241 225 228 227 230 259 308 330 325 320 334 331 332 331 330 328 313 200 122 97 177 262 293 96 80 73 296 298 303 298 298 318 7 55 54 4 42 88 150 137 142 174 176 140 151 152 101 112 266 271 329 65 110 98 90 106 118 125 123 118 109 106 115 126 133
112 101 116 144 166 177 153 307 291 326 298 313 346 318 302 266 233 288 319 312 308 293 305 289 253 260 284 280 217 286 299 340 9 348 34 43 329 342 355 356 170 146 75 190 202 207 184 94 109 80 349 343 339 337 339 351 28 55 332 342 350 28 92 107 129 93 111 194 152 131 212 259 282 12 108 118 87 70 89 106 117 123 128 133 133 133 134 133
114 95 106 143 170 196 238 182 160 196 292 342 352 326 334 318 270 297 272 267 310 306 240 292 298 298 315 328 333 309 313 179 323 353 44 15 323 338 3 15 55 82 48 151 151 154 153 109 131 140 164 190 216 264 261 287 327 352 340 350 352 7 73 137 134 90 160 229 111 132 211 251 284 61 137 129 97 81 85 83 89 102 116 131 138 139 142 138
128 105 125 150 182 209 230 166 119 127 208 34 356 316 349 329 307 327 297 271 359 358 310 303 335 349 6 4 354 329 334 335 3 47 41 353 304 312 343 1 36 43 46 76 81 110 110 61 106 120 136 177 198 228 236 240 22 344 334 348 350 334 335 91 102 107 190 162 67 219 216 176 156 166 148 127 102 94 88 73 71 78 85 100 114 124 135 142
130 132 145 137 187 217 77 72 100 114 166 135 101 326 341 311 307 346 14 38 21 15 15 33 26 31 0 354 355 317 331 356 21 37 8 331 273 301 324 350 32 25 30 59 37 67 101 54 81 98 91 198 227 253 261 75 84 54 354 352 350 343 354 70 108 162 152 119 299 251 189 147 170 166 128 119 103 86 75 66 68 74 76 82 98 111 118 124
128 153 143 136 192 225 61 23 76 91 93 142 134 351 347 338 337 348 331 330 18 31 40 14 9 16 339 329 321 304 341 14 18 5 337 343 346 329 332 347 28 21 32 46 14 65 115 81 134 111 64 0 356 333 14 97 106 78 45 23 4 2 19 68 136 212 135 133 208 205 136 130 151 115 88 93 90 84 81 79 79 81 80 78 82 90 96 100
120 125 127 131 141 126 103 53 53 74 63 305 331 8 348 345 343 295 274 341 3 12 51 42 326 336 345 351 68 29 8 30 357 322 311 0 7 356 349 337 349 8 26 50 16 58 107 81 144 122 77 23 10 355 47 99 115 70 38 29 18 15 28 47 42 326 74 125 143 122 102 77 17 15 66 88 93 91 86 81 79 80 83 81 76 72 69 74
132 133 136 124 91 49 47 40 62 76 33 345 356 349 320 0 340 303 278 97 23 322 39 81 309 311 344 11 44 67 80 162 193 284 243 63 28 44 349 293 304 336 354 32 8 2 73 117 191 90 84 6 345 0 36 76 110 89 39 20 16 18 23 25 30 27 28 90 104 99 95 59 359 16 66 82 88 86 79 74 74 80 89 92 91 86 76 71
140 144 142 128 82 5 3 22 63 91 29 6 7 291 320 351 321 306 282 225 177 207 235 285 309 318 6 6 356 357 292 201 213 247 239 208 216 232 240 206 186 315 330 357 5 355 55 107 35 69 99 319 323 346 358 17 74 75 36 13 4 8 21 354 343 352 333 127 116 109 117 125 0 63 68 66 72 75 70 72 80 86 90 91 93 97 98 93
138 142 141 130 86 349 0 36 48 80 65 300 246 263 282 295 311 333 329 287 252 149 287 284 186 25 9 350 317 312 312 292 267 267 267 255 251 257 268 267 245 238 282 338 41 17 82 116 106 90 120 277 315 335 351 14 41 21 0 356 336 310 302 312 331 355 341 331 130 130 143 136 127 105 84 64 61 67 67 71 82 88 90 89 89 92 97 100